#timestamp,LO_Frequency,Hit,StdDev 
1686650415.3,286046997.2,N
1686650435.1,286046997.6,N
1686650455.9,286046999.5,N
1686650475.7,286046998.8,N
1686650495.6,286046997.8,N
1686650515.4,286046998.4,N
1686650535.2,286046996.9,Y
1686650555.1,286046998.1,P
1686650556.0,286046998.1,P
1686650575.8,286046998.7,P
1686650595.6,286046999.5,N
1686650615.5,286046999.3,N
1686650635.3,286046996.6,Y
1686650655.2,286047000.6,P
1686650675.9,286046998.1,N
1686650695.7,286047000.5,N
1686650715.6,286047002.8,N
1686650735.4,286046999.8,N
1686650755.2,286046999.9,N
1686650775.1,286046998.5,N
1686650776.0,286046998.5,N
1686650795.8,286047000.8,N
1686650815.7,286047000.5,N
1686650835.5,286047000.0,N
1686650855.3,286047000.1,N
1686650875.2,286047002.4,N
1686650895.0,286046999.9,N
1686650895.9,286046999.9,N
1686650915.8,286047000.7,N
1686650935.6,286047000.2,N
1686650955.4,286047002.1,N
1686650975.3,286047000.1,N
1686650995.1,286046999.8,N
1686651015.9,286047002.3,N
1686651035.7,286047000.2,N
1686651055.5,286047002.1,N
1686651075.4,286047000.1,N
1686651095.2,286047002.7,N
1686651115.0,286047002.4,N
1686651115.9,286047002.4,N
1686651135.8,286047002.8,N
1686651155.6,286047000.6,N
1686651175.5,286046999.7,N
1686651195.3,286047000.9,N
1686651215.1,286047000.8,N
1686651235.9,286047000.6,N
1686651255.7,286047001.1,N
1686651275.6,286047000.6,N
1686651295.4,286046998.6,N
1686651315.2,286046998.5,N
1686651335.1,286047000.9,N
1686651336.0,286047000.9,N
1686651355.8,286046998.2,N
1686651375.6,286047000.5,N
1686651395.5,286047000.8,N
1686651415.3,286047000.9,N
1686651435.2,286047000.8,N
1686651455.9,286047000.9,N
1686651475.7,286047000.8,N
1686651495.6,286046998.3,N
1686651515.4,286046998.5,N
1686651535.2,286046998.6,N
1686651555.1,286046999.0,N
1686651556.0,286046999.0,N
1686651575.8,286046999.1,N
1686651595.6,286046999.1,N
1686651615.5,286046999.5,N
1686651635.3,286046998.2,N
1686651655.2,286046998.1,N
1686651675.9,286046999.1,N
1686651695.7,286046998.5,N
1686651715.6,286046998.3,N
1686651735.4,286046998.1,N
1686651755.2,286046998.2,N
1686651775.1,286046998.9,N
1686651776.0,286046998.9,N
1686651795.8,286046998.6,N
1686651815.7,286046999.5,N
1686651835.5,286046999.3,N
1686651855.3,286046996.8,Y
1686651875.2,286046996.6,P
1686651895.0,286046997.0,N
1686651895.9,286046997.0,N
1686651915.8,286046996.7,Y
1686651935.6,286047000.7,P
1686651955.4,286047000.6,N
1686651975.3,286047001.2,N
1686651995.1,286047000.7,N
1686652015.8,286047000.9,N
1686652035.7,286047001.0,N
1686652055.5,286047000.8,N
1686652075.4,286046998.2,N
1686652095.2,286047001.2,N
1686652115.0,286047001.2,N
1686652115.9,286047001.2,N
1686652135.8,286046999.3,N
1686652155.6,286046998.5,N
1686652175.4,286046998.8,N
1686652195.3,286046998.1,N
1686652215.1,286047001.1,N
1686652235.9,286046998.9,N
1686652255.7,286046996.9,N
1686652275.5,286046997.7,N
1686652295.4,286046996.9,N
1686652315.2,286046998.4,N
1686652335.0,286046999.4,N
1686652335.9,286046999.4,N
1686652355.8,286046998.9,N
1686652375.6,286046998.7,N
1686652395.5,286046998.3,N
1686652415.3,286047000.6,N
1686652435.1,286046999.8,N
1686652455.9,286047000.0,N
1686652475.7,286047000.1,N
1686652495.5,286047002.8,N
1686652515.4,286046999.7,N
1686652535.2,286047000.2,N
1686652555.1,286047002.4,N
1686652556.0,286047002.4,N
1686652575.8,286047002.4,N
1686652625.7,286047001.8,E
1686652635.6,286047000.1,N
1686652655.4,286046998.2,P
1686652675.3,286046998.3,N
1686652695.1,286046998.6,N
1686652715.8,286046998.2,N
1686652735.7,286046998.5,N
1686652755.5,286046998.3,N
1686652775.3,286047001.1,N
1686652795.2,286047001.0,N
1686652815.0,286046998.2,N
1686652815.9,286046998.2,N
1686652835.8,286047001.0,N
1686652855.6,286046998.7,N
1686652875.4,286047001.1,N
1686652895.3,286047000.9,N
1686652915.1,286047000.8,N
1686652935.9,286046999.9,N
1686652955.7,286047000.1,N
1686652975.5,286047000.5,N
1686652995.4,286047000.0,N
1686653015.2,286047000.2,N
1686653035.0,286047000.0,N
1686653035.9,286047000.0,N
1686653055.8,286047000.4,N
1686653075.6,286046999.7,N
1686653095.5,286047002.3,N
1686653115.3,286047000.1,N
1686653135.1,286047002.4,N
1686653155.9,286047002.1,N
1686653175.7,286047002.6,N
1686653195.5,286047002.1,N
1686653215.4,286047001.6,N
1686653235.2,286047001.3,N
1686653255.1,286047001.6,N
1686653256.0,286047001.6,N
1686653275.8,286047001.9,N
1686653295.6,286047002.7,N
1686653315.5,286047002.0,N
1686653335.3,286047001.8,N
1686653355.1,286047001.6,N
1686653375.9,286047003.9,Y
1686653395.7,286047002.5,P
1686653415.6,286047002.2,N
1686653435.4,286046999.8,N
1686653455.2,286047002.6,N
1686653475.1,286047002.5,N
1686653476.0,286047002.5,N
1686653495.8,286047001.5,N
1686653515.7,286047001.8,N
1686653535.5,286047001.7,N
1686653555.4,286047001.5,N
1686653575.2,286047001.7,N
1686653595.0,286047002.0,N
1686653595.9,286047002.0,N
1686653615.8,286047001.7,N
1686653635.6,286047001.8,N
1686653655.5,286047001.4,N
1686653675.3,286047001.4,N
1686653695.1,286047004.4,Y
1686653715.9,286046999.8,P
1686653735.7,286047002.5,N
1686653755.6,286046999.7,N
1686653775.4,286046999.8,N
1686653795.2,286047002.2,N
1686653815.1,286047000.4,N
1686653816.0,286047000.4,N
1686653835.8,286047000.0,N
1686653855.7,286047002.3,N
1686653875.5,286047000.2,N
1686653895.3,286046999.9,N
1686653915.2,286047002.5,N
1686653935.0,286047001.6,N
1686653935.9,286047001.6,N
1686653955.8,286047001.7,N
1686653975.6,286047001.6,N
1686653995.4,286047002.2,N
